Total_Precipitation_Accumulation
0.21 0.38 0.83 1.33 2.33 2.64 1.96 1.19 0.85 0.81 0.86 0.83 0.75 0.82 0.92 1.16 1.66 2.66 2.62 2.18 1.71 1.73 2.17 2.34 2.62 2.46 2.35 2.22 2.23 2.35 2.43 2.26 2.09 2.06 2.12 2.13 2.18 2.10 2.12 2.21 2.28 2.32 2.26 2.34 2.54 2.49 2.58 2.64 2.65
0.36 0.67 1.24 2.09 2.76 2.16 1.70 1.04 0.67 0.65 0.71 0.85 0.86 0.79 0.71 0.82 0.96 1.45 2.04 2.15 1.47 1.38 1.66 1.79 2.14 2.18 2.18 2.06 2.10 2.19 2.16 2.04 1.96 1.88 2.00 2.08 2.14 2.16 2.16 2.26 2.32 2.35 2.29 2.35 2.47 2.47 2.54 2.62 2.63
0.54 0.83 1.47 2.30 1.92 1.49 1.38 0.91 0.60 0.46 0.62 0.90 0.92 0.69 0.80 1.10 1.16 1.52 1.81 1.71 1.35 1.32 1.44 1.69 1.96 2.01 2.02 1.93 1.95 1.99 1.90 1.84 1.85 1.85 1.91 1.99 2.12 2.20 2.22 2.27 2.37 2.53 2.64 2.60 2.54 2.59 2.61 2.59 2.49
0.74 1.05 1.54 1.69 1.15 0.76 0.73 0.72 0.62 0.57 0.75 0.90 0.81 0.74 0.95 1.30 1.30 1.39 1.37 1.31 1.14 1.36 1.48 1.72 2.05 1.99 1.93 1.85 1.79 1.76 1.74 1.73 1.73 1.81 1.97 2.07 2.12 2.12 2.19 2.28 2.43 2.68 2.67 2.51 2.58 2.68 2.59 2.60 2.59
0.89 1.36 1.87 1.44 0.93 0.61 0.49 0.48 0.54 0.68 0.82 0.93 0.82 0.87 1.29 1.45 1.16 1.08 1.05 1.21 1.26 1.49 1.68 1.88 2.14 2.13 2.04 1.88 1.77 1.66 1.55 1.59 1.63 1.72 1.93 2.05 2.07 2.01 2.08 2.27 2.32 2.30 2.39 2.51 2.66 2.65 2.57 2.63 2.59
1.14 1.42 1.56 1.10 0.71 0.51 0.44 0.44 0.57 0.73 0.74 0.80 0.91 1.09 1.66 1.63 1.25 1.11 1.11 1.28 1.42 1.56 1.74 2.09 2.31 2.37 2.21 1.95 1.74 1.60 1.51 1.46 1.51 1.61 1.72 1.87 1.96 2.02 2.20 2.31 2.16 2.05 2.15 2.36 2.51 2.56 2.55 2.54 2.51
1.22 1.33 1.19 0.78 0.60 0.51 0.47 0.47 0.52 0.66 0.74 0.93 0.95 1.12 1.72 1.89 1.42 1.11 1.25 1.59 1.76 1.76 1.69 1.98 2.19 2.21 2.19 2.01 1.73 1.61 1.54 1.43 1.44 1.47 1.55 1.67 1.85 1.97 2.12 2.27 2.22 2.07 2.01 2.16 2.33 2.39 2.62 2.48 2.28
0.83 0.91 0.92 0.66 0.53 0.47 0.40 0.41 0.51 0.68 0.78 0.83 0.95 1.16 1.48 1.56 1.31 1.27 1.56 2.07 2.34 2.22 1.91 1.65 1.70 1.84 1.86 1.79 1.79 1.75 1.55 1.37 1.41 1.54 1.72 1.94 2.09 2.13 2.23 2.26 2.47 2.27 2.10 2.20 2.37 2.37 2.35 2.28 2.30
0.54 0.74 0.78 0.54 0.38 0.36 0.38 0.42 0.46 0.51 0.60 0.84 1.08 1.27 1.25 1.08 1.12 1.37 1.74 2.19 2.49 2.32 2.14 1.85 1.71 1.77 1.86 1.72 1.59 1.85 1.72 1.57 1.72 2.02 2.21 2.40 2.48 2.29 2.39 2.32 2.80 2.71 2.59 2.73 2.81 2.77 2.67 2.64 2.68
0.46 0.55 0.43 0.30 0.25 0.24 0.29 0.36 0.38 0.53 0.84 1.29 1.56 1.46 1.26 1.14 1.26 1.56 1.84 1.97 2.09 2.13 2.09 2.10 1.88 1.90 1.95 1.77 1.97 2.43 2.16 2.15 2.42 2.58 2.49 3.00 3.23 3.04 2.43 2.55 3.15 3.27 3.32 3.40 3.38 3.49 3.32 3.05 2.95
0.32 0.31 0.21 0.17 0.17 0.20 0.24 0.28 0.36 0.56 1.11 1.58 1.79 1.50 1.32 1.34 1.46 1.61 2.01 2.18 2.28 2.29 2.14 2.22 2.09 2.04 2.17 2.36 2.35 2.59 2.73 2.91 3.07 3.07 3.12 3.44 3.31 2.95 2.66 2.89 3.36 3.48 3.46 3.47 3.60 3.74 3.28 3.19 3.27
0.17 0.13 0.12 0.12 0.13 0.15 0.19 0.26 0.45 0.69 1.12 1.40 1.32 1.16 1.16 1.45 1.66 1.85 2.18 2.52 2.63 2.71 2.67 2.46 2.33 2.57 2.72 2.66 2.56 2.42 2.28 2.38 2.67 2.83 2.80 3.34 3.78 3.64 3.47 3.58 3.51 3.70 3.89 4.16 3.82 3.77 3.57 3.51 3.35
0.13 0.12 0.13 0.12 0.13 0.18 0.19 0.27 0.47 0.78 0.98 1.03 0.90 0.94 1.23 1.58 1.85 2.33 2.81 2.88 2.86 3.13 3.32 3.14 3.03 3.03 2.91 3.00 2.65 2.29 2.23 2.10 2.11 2.53 2.84 3.07 3.48 3.64 3.68 3.51 3.50 3.32 3.44 3.62 3.64 3.36 3.49 3.68 3.67
0.09 0.10 0.12 0.14 0.16 0.19 0.26 0.33 0.45 0.70 0.79 0.79 0.85 1.08 1.32 1.74 2.06 2.60 3.13 3.20 3.30 3.59 3.82 3.74 3.73 3.55 3.26 3.01 2.89 2.74 2.52 2.44 2.16 2.44 2.59 2.87 3.25 3.39 3.29 3.37 3.49 3.29 3.29 3.32 3.35 3.40 3.73 3.94 4.01
0.10 0.12 0.18 0.19 0.20 0.20 0.30 0.56 0.60 0.77 0.86 0.83 0.99 1.15 1.53 2.00 2.28 2.62 2.85 3.25 3.70 4.14 4.23 4.19 4.18 4.13 4.10 3.75 3.35 2.99 2.92 2.65 2.56 2.57 2.50 2.76 3.10 3.36 3.30 3.27 3.12 3.10 3.17 3.35 3.40 3.54 3.76 3.65 3.73
0.16 0.29 0.43 0.35 0.28 0.25 0.36 0.87 0.98 0.92 0.87 0.95 1.09 1.39 1.66 1.97 2.38 2.61 2.93 3.29 3.72 4.29 4.70 4.79 4.27 4.29 4.40 4.34 4.02 3.54 3.44 3.29 3.10 2.78 2.66 2.67 2.95 3.07 3.13 2.95 2.85 2.90 2.79 2.95 3.23 3.29 3.39 3.54 3.72
0.19 0.30 0.40 0.46 0.32 0.29 0.44 0.99 1.30 1.05 0.87 0.99 1.24 1.50 1.85 2.11 2.53 2.66 2.84 3.12 3.62 4.57 5.50 5.52 5.03 4.64 4.39 4.37 4.42 4.26 4.08 3.75 3.27 3.03 2.94 2.81 2.69 2.49 2.60 2.66 2.75 2.60 2.57 2.69 2.58 3.13 3.36 3.50 3.59
0.16 0.21 0.37 0.53 0.36 0.35 0.51 0.95 1.01 0.96 1.08 1.05 1.10 1.27 1.60 1.75 2.06 2.33 2.62 3.18 4.02 5.26 6.08 5.99 5.37 4.97 4.66 4.47 4.33 4.33 4.09 3.82 3.36 3.17 3.01 2.75 2.73 2.38 2.44 2.42 2.54 2.43 2.56 2.80 3.02 3.34 3.33 3.23 3.29
0.12 0.17 0.31 0.38 0.32 0.43 0.57 0.84 0.95 1.05 1.23 1.20 1.07 1.10 1.38 1.57 1.87 2.35 2.91 3.75 4.85 5.82 6.14 5.64 5.18 4.88 4.48 4.13 3.55 3.23 3.34 3.31 3.08 2.77 2.45 2.40 2.30 2.35 2.59 2.35 2.57 2.43 2.55 2.67 2.79 3.00 3.05 2.90 2.96
0.13 0.18 0.29 0.36 0.29 0.35 0.59 0.91 1.23 1.19 1.11 1.06 1.13 1.15 1.25 1.60 2.04 2.78 3.82 4.40 4.68 4.84 4.60 4.28 4.05 3.86 3.38 3.14 3.05 2.86 2.94 2.71 2.56 2.50 2.60 2.22 2.08 2.14 2.12 2.44 2.44 2.47 2.70 2.71 2.71 2.93 2.88 2.65 2.72
0.16 0.20 0.27 0.35 0.26 0.34 0.61 1.15 1.46 1.38 1.12 0.96 1.04 1.09 1.25 1.64 2.23 3.06 3.66 3.79 3.55 3.22 3.09 3.05 3.16 2.93 2.81 2.89 2.84 2.79 2.89 2.63 2.45 2.41 2.56 2.19 1.89 1.87 1.98 2.12 2.30 2.54 2.46 2.65 2.75 2.67 2.76 2.80 2.74
0.18 0.15 0.13 0.16 0.26 0.50 0.73 1.42 1.59 1.37 1.29 1.07 1.10 1.12 1.14 1.40 1.79 2.22 2.50 2.40 2.49 2.63 2.64 2.79 2.89 2.64 2.66 2.63 2.40 2.34 2.32 2.23 2.21 2.27 2.38 2.42 1.99 1.79 1.80 1.92 2.13 2.36 2.26 2.55 2.33 2.51 2.83 2.91 2.71
0.09 0.08 0.10 0.18 0.33 0.56 0.79 1.14 1.33 1.14 1.30 1.08 0.97 0.97 0.91 1.10 1.27 1.39 1.50 1.62 1.81 1.95 2.13 2.40 2.67 2.63 2.49 2.33 2.33 2.39 2.25 2.25 2.25 2.29 2.38 2.46 2.24 1.95 1.77 1.88 2.10 2.22 2.19 2.26 2.31 2.69 2.72 2.68 2.63
0.08 0.10 0.20 0.32 0.52 1.05 1.03 1.06 1.30 1.31 1.32 1.13 0.97 0.82 0.83 0.95 1.10 1.17 1.20 1.32 1.49 1.64 1.87 2.12 2.45 2.54 2.46 2.32 2.25 2.31 2.38 2.38 2.33 2.37 2.36 2.18 2.14 2.12 1.94 1.95 2.11 2.10 2.11 2.16 2.22 2.49 2.50 2.63 2.72
0.10 0.15 0.39 0.75 1.12 1.30 0.86 0.94 1.23 1.15 1.01 0.89 0.67 0.62 0.72 0.89 1.04 1.16 1.18 1.18 1.26 1.41 1.54 1.63 1.89 2.15 2.26 2.22 2.19 2.20 2.38 2.32 2.15 2.07 2.05 2.04 1.85 1.79 1.85 1.96 2.15 2.02 2.00 2.07 2.34 2.47 2.46 2.61 2.62
0.08 0.10 0.24 0.41 0.52 0.67 0.84 1.23 1.36 1.13 0.76 0.50 0.48 0.60 0.77 0.90 0.97 1.08 1.10 1.05 1.08 1.16 1.34 1.51 1.80 1.95 2.14 2.16 2.13 2.16 2.24 2.13 1.98 2.01 1.81 1.81 1.76 1.67 1.75 1.87 1.90 1.90 1.95 1.98 2.38 2.27 2.34 2.50 2.40
0.09 0.09 0.11 0.18 0.22 0.47 0.86 1.17 1.15 0.97 0.75 0.58 0.55 0.60 0.76 0.81 0.80 0.93 0.97 1.10 1.15 1.10 1.22 1.40 1.69 2.02 2.23 2.30 2.33 2.25 2.24 2.23 2.17 2.09 1.86 1.68 1.82 1.72 1.82 1.91 1.92 1.97 2.13 2.27 2.48 2.31 2.34 2.48 2.29
0.09 0.10 0.13 0.15 0.23 0.40 0.70 1.12 1.35 1.17 0.93 0.76 0.66 0.66 0.75 0.77 0.80 1.01 1.18 1.22 1.10 0.98 1.06 1.20 1.50 2.00 2.26 2.40 2.34 2.17 2.31 2.22 2.19 2.10 1.92 1.77 1.76 1.80 1.94 2.11 2.10 2.16 2.20 2.31 2.43 2.23 2.36 2.39 2.28
0.09 0.11 0.14 0.16 0.17 0.26 0.55 0.80 0.79 0.81 0.73 0.71 0.77 0.75 0.63 0.69 0.85 1.09 1.35 1.30 1.04 0.92 0.92 1.07 1.45 1.79 2.01 2.16 2.21 2.07 2.02 1.95 1.95 1.97 1.93 1.91 1.91 1.88 1.90 2.04 2.11 2.08 2.11 2.22 2.33 2.15 2.24 2.24 2.27
0.11 0.13 0.17 0.20 0.19 0.18 0.32 0.57 0.45 0.54 0.63 0.71 0.83 0.89 0.84 0.87 0.93 1.00 1.16 1.29 1.18 1.05 0.99 1.19 1.49 1.68 1.79 1.88 1.92 1.91 1.91 1.89 1.81 1.77 1.85 1.92 1.84 1.75 1.80 1.87 1.87 1.79 1.91 2.10 2.14 2.04 2.13 2.19 2.18